www.pogodaiklimat.ru

Погода и климат >> Архив погоды >> Украина >> Белополе


ПОГОДА в Белополе

  • Прогноз погоды в Белополе
  • Монитор погоды в Белополе

АРХИВ ПОГОДЫ в Белополе

Время (UTC), дата Ветер
(напр.,м/с)
 
Видим.   Явления Облачность Т
(С)
Тd
(С)
f
(%)
Тe
(С)
Тes
(С)
Комфортность P
(гПа)
Po
(гПа)
Тmin
(С)
Tmax
(С)
R
(мм)
R24
(мм)
S
(см)
06 12.06 В 1 4000 м ясно +25.0 +19.6 72 +30 +39 душно 1017.0 987.5 +18.2
09 12.06 СВ 1 4000 м 4/4 600 м
[Cu med, cong]
+29.6 +20.7 59 +37 +51 опасность
солнечного
удара
1016.0 987.0
12 12.06 В 2 4000 м 3/3 600 м
[Cu med, cong]
+29.8 +19.8 55 +36 +46 очень
душно
1015.0 986.1
15 12.06 В 1 4000 м 3/3 600 м
[Cu med, cong]
+29.2 +19.2 55 +35 +39 очень
душно
1014.0 985.0
18 12.06 штиль 0 4000 м 8/0
[Ac trans Ci fib]
+24.8 +17.3 63 +29 +29 душно 1015.0 985.5 +30.0
21 12.06 штиль 0 10 км ясно +20.7 +17.3 81 +24 +24 комфорт 1016.0 986.1
00 13.06 штиль 0 10 км ясно +18.3 +16.3 88 +19 +19 1018.0 988.0
03 13.06 штиль 0 1200 м дымка 4/0
[]
+17.5 +16.7 95 +17 +18 1017.0 986.7
06 13.06 С 1 13 км 8/0
[Ci fib]
+25.3 +19.0 68 +30 +30 душно 1017.0 987.6 +17.0
09 13.06 СВ 2 4000 м 8/1 1000 м
[Cu hum Ci fib]
+29.8 +19.5 54 +36 +36 очень
душно
1017.0 988.0
12 13.06 В 2 4000 м 9/8 1000 м
[Cu med, cong Ci fib]
+29.4 +19.4 55 +35 +35 очень
душно
1017.0 988.0
15 13.06 ЮВ 2 4000 м гроза, ливневой дождь 8/8 600 м
[Cb cap]
+19.9 +15.7 77 +23 +23 комфорт 1018.0 987.9
18 13.06 штиль 0 4000 м {гроза, ливн. осадки} 8/0
[Ci fib]
+20.3 +16.3 78 +23 +23 комфорт 1018.0 988.0 +30.2 1
21 13.06 штиль 0 10 км 8/0
[Ac trans]
+18.5 +16.5 88 +19 +19 1019.0 988.8
00 14.06 штиль 0 10 км 6/0
[Ac trans]
+17.0 +15.2 89 +17 +17 1020.0 989.6
03 14.06 штиль 0 4000 м 9/0
[Ac trans Ci fib]
+17.0 +15.2 89 +17 +17 1019.0 988.6
06 14.06 штиль 0 4000 м 6/0
[Ac trans Ci fib]
+24.2 +18.1 69 +29 +33 душно 1019.0 989.4 +16.9
09 14.06 штиль 0 4000 м 8/0
[Ci fib]
+28.3 +21.3 66 +36 +36 очень
душно
1019.0 989.8
12 14.06 штиль 0 4000 м 9/4 1000 м
[Cu med, cong Ac trans Ci fib]
+30.2 +19.2 52 +36 +36 очень
душно
1018.0 989.0
15 14.06 штиль 0 4000 м в посл. час ливневой дождь {гроза} 9/5 600 м
[Sc Ac trans]
+24.0 +21.3 85 +30 +30 очень
душно
1018.0 988.4
18 14.06 штиль 0 4000 м {гроза, ливн. осадки} ясно +23.5 +20.2 82 +29 +29 душно 1018.0 988.4 +30.2 1
21 14.06 штиль 0 10 км ясно +19.7 +17.8 89 +22 +22 комфорт 1018.0 987.9
00 15.06 ЮЗ 1 10 км ясно +18.9 +17.6 92 +21 +21 комфорт 1018.0 987.9
03 15.06 ЮЗ 1 14 км 4/0
[Ci fib]
+18.5 +16.7 89 +20 +21 1017.0 986.8
06 15.06 СЗ 1 4000 м 4/0
[Ci fib]
+24.1 +17.8 68 +28 +35 душно 1017.0 987.4 +18.4
09 15.06 С 2 4000 м ясно +29.2 +18.9 54 +35 +51 опасность
солнечного
удара
1016.0 987.0
12 15.06 С 2 4000 м 5/5 600 м
[Cu med, cong]
+30.2 +17.6 47 +34 +40 очень
душно
1015.0 986.1
15 15.06 С 1 4000 м 4/4 600 м
[Cu med, cong]
+31.4 +18.0 45 +36 +40 очень
душно
1014.0 985.2
18 15.06 штиль 0 4000 м 3/0
[Ci fib]
+26.2 +18.6 63 +31 +31 очень
душно
1014.0 984.7 +31.4
21 15.06 ЮЗ 1 10 км ясно +21.3 +18.3 83 +26 +26 душно 1014.0 984.2
00 16.06 З 1 10 км ясно +18.7 +17.2 91 +21 +21 комфорт 1014.0 984.0
03 16.06 З 1 8000 м дымка 3/0
[Ci fib]
+17.7 +16.6 93 +19 +19 1014.0 983.8
06 16.06 З 1 4000 м ясно +26.4 +20.2 69 +33 +42 очень
душно
1013.0 983.8 +17.6
09 16.06 ЮЗ 1 4000 м 1/1 1000 м
[Cu hum]
+30.2 +17.3 46 +34 +54 опасность
солнечного
удара
1013.0 984.1
12 16.06 ЮЗ 1 4000 м 9/8 1000 м
[Cu Sc Ci fib]
+30.4 +19.1 51 +36 +36 очень
душно
1013.0 984.2
15 16.06 штиль 0 4000 м 9/0
[Ac trans Ci fib]
+26.4 +19.5 66 +32 +32 очень
душно
1013.0 983.8
18 16.06 Ю 1 4000 м 8/0
[Ac trans Ci fib]
+25.6 +21.3 77 +32 +32 очень
душно
1013.0 983.7 +31.5
21 16.06 штиль 0 10 км ясно +21.3 +19.2 88 +26 +26 душно 1014.0 984.2
00 17.06 штиль 0 10 км ясно +21.1 +19.0 88 +25 +25 комфорт 1014.0 984.2
03 17.06 ЮВ 1 4000 м 8/8 600 м
[Sc]
+20.3 +19.0 92 +25 +25 комфорт 1015.0 985.1
06 17.06 ЮЗ 2 4000 м 3/1 600 м
[Sc Ac trans]
+25.5 +19.8 71 +31 +37 очень
душно
1014.0 984.7 +20.0
09 17.06 З 2 4000 м 4/4 600 м
[Cu med, cong]
+30.0 +19.4 53 +36 +48 очень
душно
1014.0 985.1
12 17.06 В 3 4000 м гроза без осадков 9/8 600 м
[Cb cap Ac trans Ci fib]
+26.6 +18.7 62 +32 +32 очень
душно
1014.0 984.8
15 17.06 Ю 2 12 км гроза без осадков {ливн. осадки} 10/8 600 м
[Cb cap Ac und]
+22.8 +21.1 90 +30 +30 очень
душно
1015.0 985.4
18 17.06 З 2 15 км {гроза, ливн. осадки} 10/0
[Ac und Ci fib]
+21.7 +18.7 83 +27 +27 душно 1015.0 985.2 +31.1 4
21 17.06 СВ 2 10 км 5/0
[Ci fib]
+21.3 +18.7 85 +26 +26 душно 1016.0 986.2
00 18.06 СЗ 2 10 км 5/5 600 м
[Sc]
+19.7 +16.1 80 +23 +23 комфорт 1017.0 987.0
03 18.06 СЗ 2 12 км 3/0
[Ci fib]
+17.3 +15.6 90 +18 +18 1018.0 987.7
06 18.06 СЗ 1 4000 м ясно +21.1 +15.6 71 +24 +33 комфорт 1018.0 988.1 +17.0
09 18.06 С 2 4000 м 8/4 600 м
[Cu med, cong Ac trans Ci fib]
+24.0 +16.5 63 +27 +27 жарко 1018.0 988.4
12 18.06 СЗ 1 4000 м 6/6 1000 м
[Cu hum]
+26.3 +15.9 53 +30 +37 душно 1017.0 987.6
15 18.06 С 1 4000 м 3/3 1000 м
[Cu hum]
+26.6 +15.9 52 +30 +34 душно 1016.0 986.7
18 18.06 штиль 0 4000 м 3 балла +22.7 +16.0 66 +27 +27 душно 1016.0 986.3 +26.6
21 18.06 штиль 0 10 км 3/0
[Ci fib]
+19.5 +16.0 80 +21 +21 комфорт 1018.0 987.9
00 19.06 штиль 0 10 км 6 баллов +18.9 +15.9 83 +20 +20 1017.0 986.9
03 19.06 штиль 0 4000 м 10 баллов +17.9 +15.5 86 +18 +18 1017.0 986.8

 

Местоположение метеостанции Белополе (Винницкая область, Украина): широта 49.83 долгота 28.88 высота над уровнем моря 258 м.

В архиве по умолчанию представлена погода в Белополе за последнюю неделю. Архивные данные за месяц целиком и за предыдущие месяцы, начиная с января 2011 года, Вы можете получить, выбрав интересующий диапазон дат из раскрывающегося списка и нажав кнопку "Ввод!".


*Определитесь, кто Вы:
робот инопланетянин человек

Внимание! Время в таблицах - всемирное. Для получения местного времени необходимо прибавить поправку, которая равна 2 ч.

Смотрите также архив погоды в соседних городах и на ближайших метеорологических станциях:

Погода в Житомире (Житомирская область, Украина) (46 км)
Погода в Виннице (Винницкая область, Украина) (70 км)
Погода в Фастове (Киевская область, Украина) (79 км)
Погода в Белой Церкви (Киевская область, Украина) (89 км)
Погода в Жмеринке (Винницкая область, Украина) (103 км)
Погода в Тетереве (Киевская область, Украина) (109 км)
Погода в Жашкове (Черкасская область, Украина) (109 км)
Погода в Хмельнике (Винницкая область, Украина) (110 км)
Погода в Гайсине (Винницкая область, Украина) (121 км)
Погода в Новограде-Волынском (Житомирская область, Украина) (123 км)

Пояснения к столбцам:

Ветер - указаны скорость ветра в м/с - средняя за 10 мин, порывы в срок и между сроками (в фигурных скобках) и направление, откуда дует ветер: С - северный, СВ - северо-восточный, В - восточный, ЮВ - юго-восточный, Ю - южный, ЮЗ - юго-западный, З - западный, СЗ - северо-западный.
Видимость - горизонтальная дальность видимости в метрах или километрах. При видимости от 1 до 10 км при отсутствии осадков обычно наблюдается дымка, при ухудшении видимости до 1 км и менее - туман. В сухую погоду видимость может ухудшаться дымом, пылью или мглою.
Явления - указаны атмосферные явления, наблюдавшиеся в срок или в последний час перед сроком; фигурными скобками обозначены явления, наблюдавшиеся между сроками (за 1-3 часа до срока); квадратными скобками обозначены град или гололедные отложения с указанием их диаметра в мм.
Облачность - указаны через наклонную черту общая и нижняя облачность в баллах и высота нижней границы облаков в метрах; квадратными скобками обозначены формы облаков: Ci - перистые, Cs - перисто-слоистые, Cc - перисто-кучевые, Ac - высококучевые, As - высокослоистые, Sc - слоисто-кучевые, Ns - слоисто-дождевые, Cu - кучевые, Cb - кучево-дождевые. Подробнее классификацию облаков см. в Атласе облаков (PDF).
T - Температура воздуха - температура, измеренная на высоте 2 м над землей.
Td - Температура точки росы - температура, при понижении до которой содержащийся в воздухе водяной пар достигнет насыщения.
f - Относительная влажность воздуха - влажноcть воздуха, измеренная на высоте 2 м над землей.
Te - Эффективная температура - температура, которую ощущает одетый по сезону человек в тени. Характеристика душности погоды. При расчете учитывается влияние влажности воздуха и скорости ветра на теплоощущения человека.
Tes - Эффективная температура на солнце - температура, которую ощущает человек, с поправкой на солнечный нагрев. Характеристика знойности погоды. Зависит от высоты солнца над горизонтом, облачности и скорости ветра. Ночью, в пасмурную погоду, а также при ветре 12 м/с и более поправка равна нулю.
P - Атмосферное давление - приведенное к уровню моря атмосферное давление.
Po - Атмосферное давление - измеренное на уровне метеостанции атмосферное давление.
Tmin - Минимальная температура - минимум температуры воздуха на высоте 2 м над землей.
Tmax - Максимальная температура - максимум температуры воздуха на высоте 2 м над землей.
R - Количество осадков - Количество выпавших осадков за период времени, мм. При наведении курсора мыши на число - период времени, за который выпало указанное количество осадков.
R24 - Количество осадков - Количество выпавших осадков за 24 часа, мм.
S - Снежный покров - Высота снежного покрова, см. При наведении курсора мыши на число - состояние снежного покрова и степень покрытия местности в баллах.